Weather History for Cherokee, IA

Change the Weather History Date:

Wednesday, September 18, 2013

  Actual Average Record
Temperature  
Mean Temperature 80 °F -  
Max Temperature 90 °F 75 °F 90 °F (1955)
Min Temperature 69 °F 48 °F 31 °F (1971)
Cooling Degree Days 14    
Growing Degree Days 30 (Base 50)    
Moisture  
Dew Point 67 °F    
Average Humidity 70    
Maximum Humidity 91    
Minimum Humidity 46    
Precipitation  
Precipitation 0.00 in - - ()
Sea Level Pressure  
Sea Level Pressure 29.77 in    
Wind  
Wind Speed 12 mph (South)    
Max Wind Speed 21 mph    
Max Gust Speed 25 mph    
Visibility 9 miles    
Events      
Averages and records for this station are not official NWS values.
T = Trace of Precipitation, MM = Missing Value Source: NWS Daily Summary

Daily Weather History Graph

Daily Weather History Graph

Search for Another Location

Airport:

Trip Planner

Search our weather history database for the weather conditions in past years. The results will help you decide how hot, cold, wet, or windy it might be!

Date:

Astronomy

Sep. 18, 2013 Rise Set
Actual Time 7:05 AM CDT 7:26 PM CDT
Civil Twilight 6:37 AM CDT 7:54 PM CDT
Nautical Twilight 6:03 AM CDT 8:27 PM CDT
Astronomical Twilight 5:29 AM CDT 9:01 PM CDT
Moon 6:49 PM CDT (9/18) 6:08 AM CDT (9/18)
Length of Visible Light 13h 17m
Length of Day
12h 20m
Waxing Gibbous, 99% of the Moon is Illuminated
Sep 18
Waxing Gibbous
Sep 19
Full
Sep 26
Last Quarter
Oct 4
New
Oct 11
First Quarter

Hourly Weather History & Observations

Time (CDT) Temp. Heat Index Dew Point Humidity Pressure Visibility Wind Dir Wind Speed Gust Speed Precip Events Conditions
12:15 AM 69.1 °F - 66.2 °F 91% 29.89 in 7.0 mi SSE 9.2 mph - N/A   Overcast
12:35 AM 69.3 °F - 66.4 °F 91% 29.88 in 7.0 mi SSE 10.4 mph - N/A   Overcast
12:55 AM 69.8 °F - 66.6 °F 89% 29.88 in 7.0 mi South 10.4 mph - N/A   Overcast
1:15 AM 70.2 °F - 66.9 °F 89% 29.88 in 7.0 mi South 11.5 mph 18.4 mph N/A   Overcast
1:35 AM 70.7 °F - 67.1 °F 88% 29.87 in 7.0 mi South 10.4 mph - N/A   Overcast
1:55 AM 70.7 °F - 67.3 °F 89% 29.87 in 7.0 mi South 12.7 mph - N/A   Overcast
2:15 AM 70.9 °F - 67.3 °F 88% 29.86 in 7.0 mi South 10.4 mph - N/A   Overcast
2:35 AM 70.9 °F - 67.3 °F 88% 29.86 in 7.0 mi South 10.4 mph - N/A   Overcast
2:55 AM 70.9 °F - 67.1 °F 88% 29.84 in 7.0 mi South 10.4 mph - N/A   Overcast
3:15 AM 70.9 °F - 67.1 °F 88% 29.84 in 7.0 mi South 12.7 mph 17.3 mph N/A   Overcast
3:35 AM 70.9 °F - 67.1 °F 88% 29.83 in 7.0 mi South 9.2 mph - N/A   Overcast
3:55 AM 70.9 °F - 67.1 °F 88% 29.83 in 7.0 mi South 12.7 mph - N/A   Overcast
4:15 AM 70.9 °F - 67.1 °F 88% 29.82 in 7.0 mi South 11.5 mph 17.3 mph N/A   Overcast
4:35 AM 70.7 °F - 67.1 °F 88% 29.82 in 5.0 mi South 9.2 mph - N/A   Overcast
4:55 AM 70.5 °F - 66.7 °F 88% 29.81 in 5.0 mi South 10.4 mph - N/A   Overcast
5:15 AM 70.3 °F - 66.9 °F 89% 29.82 in 5.0 mi South 11.5 mph 16.1 mph N/A   Overcast
5:35 AM 70.7 °F - 66.9 °F 88% 29.81 in 7.0 mi South 11.5 mph - N/A   Overcast
5:55 AM 70.7 °F - 67.1 °F 88% 29.81 in 7.0 mi South 13.8 mph - N/A   Overcast
6:15 AM 70.7 °F - 67.1 °F 88% 29.81 in 7.0 mi South 12.7 mph 18.4 mph N/A   Overcast
6:35 AM 70.9 °F - 66.9 °F 87% 29.81 in 7.0 mi South 11.5 mph 17.3 mph N/A   Overcast
6:55 AM 70.9 °F - 67.1 °F 88% 29.81 in 7.0 mi South 11.5 mph - N/A   Overcast
7:15 AM 70.3 °F - 66.6 °F 88% 29.81 in 5.0 mi South 12.7 mph - N/A   Overcast
7:35 AM 70.3 °F - 66.6 °F 88% 29.81 in 5.0 mi South 10.4 mph 17.3 mph N/A   Overcast
7:55 AM 70.2 °F - 66.6 °F 88% 29.82 in 5.0 mi South 9.2 mph - N/A   Overcast
8:15 AM 70.7 °F - 66.7 °F 87% 29.82 in 5.0 mi South 10.4 mph - N/A   Overcast
8:35 AM 71.6 °F - 67.1 °F 86% 29.81 in 5.0 mi South 12.7 mph - N/A   Haze
8:55 AM 72.5 °F - 67.3 °F 84% 29.81 in 7.0 mi South 8.1 mph 16.1 mph N/A   Scattered Clouds
9:15 AM 73.8 °F - 67.5 °F 81% 29.81 in 7.0 mi South 11.5 mph 17.3 mph N/A   Scattered Clouds
9:35 AM 75.0 °F - 68.0 °F 79% 29.81 in 7.0 mi South 11.5 mph 21.9 mph N/A   Mostly Cloudy
9:55 AM 76.1 °F - 67.6 °F 75% 29.81 in 10.0 mi South 13.8 mph - N/A   Mostly Cloudy
10:15 AM 76.8 °F - 67.8 °F 74% 29.81 in 10.0 mi South 15.0 mph 21.9 mph N/A   Mostly Cloudy
10:35 AM 78.4 °F - 68.2 °F 71% 29.80 in 10.0 mi SSW 13.8 mph - N/A   Scattered Clouds
10:55 AM 79.3 °F - 68.2 °F 69% 29.79 in 10.0 mi South 15.0 mph 19.6 mph N/A   Mostly Cloudy
11:15 AM 80.4 °F 83.2 °F 68.4 °F 67% 29.78 in 10.0 mi SSW 15.0 mph 19.6 mph N/A   Scattered Clouds
11:35 AM 81.0 °F 83.8 °F 68.4 °F 65% 29.78 in 10.0 mi South 15.0 mph 18.4 mph N/A   Scattered Clouds
11:55 AM 82.0 °F 85.1 °F 68.4 °F 63% 29.77 in 10.0 mi South 12.7 mph - N/A   Clear
12:15 PM 83.8 °F 87.3 °F 68.5 °F 60% 29.76 in 10.0 mi South 15.0 mph 18.4 mph N/A   Clear
12:35 PM 84.6 °F 87.9 °F 68.4 °F 58% 29.75 in 10.0 mi SSW 16.1 mph - N/A   Clear
12:55 PM 85.3 °F 88.5 °F 68.2 °F 56% 29.75 in 10.0 mi SSW 17.3 mph 21.9 mph N/A   Clear
1:15 PM 86.4 °F 90.0 °F 68.4 °F 55% 29.74 in 10.0 mi South 15.0 mph 18.4 mph N/A   Clear
1:35 PM 87.8 °F 91.4 °F 68.2 °F 52% 29.73 in 10.0 mi South 11.5 mph 20.7 mph N/A   Clear
1:55 PM 88.5 °F 91.6 °F 67.3 °F 49% 29.72 in 10.0 mi South 12.7 mph 18.4 mph N/A   Clear
2:15 PM 89.1 °F 92.5 °F 67.5 °F 49% 29.72 in 10.0 mi South 18.4 mph 21.9 mph N/A   Clear
2:35 PM 89.8 °F 92.9 °F 67.1 °F 47% 29.72 in 10.0 mi South 15.0 mph 20.7 mph N/A   Clear
2:55 PM 89.6 °F 92.6 °F 66.9 °F 47% 29.71 in 10.0 mi SSE 16.1 mph 23.0 mph N/A   Clear
3:15 PM 90.1 °F 93.1 °F 67.1 °F 46% 29.71 in 10.0 mi South 15.0 mph 25.3 mph N/A   Clear
3:35 PM 90.5 °F 93.8 °F 67.1 °F 46% 29.70 in 10.0 mi South 13.8 mph 20.7 mph N/A   Clear
3:55 PM 89.1 °F 92.1 °F 66.7 °F 48% 29.71 in 10.0 mi South 20.7 mph 25.3 mph N/A   Scattered Clouds
4:15 PM 89.2 °F 92.4 °F 67.1 °F 48% 29.71 in 10.0 mi South 16.1 mph 20.7 mph N/A   Mostly Cloudy
4:35 PM 88.5 °F 91.2 °F 66.6 °F 48% 29.70 in 10.0 mi South 17.3 mph 24.2 mph N/A   Scattered Clouds
4:55 PM 89.4 °F 91.9 °F 65.8 °F 46% 29.69 in 10.0 mi South 18.4 mph 25.3 mph N/A   Scattered Clouds
5:15 PM 88.9 °F 91.4 °F 66.0 °F 47% 29.70 in 10.0 mi SSW 18.4 mph 23.0 mph N/A   Mostly Cloudy
5:35 PM 88.7 °F 91.1 °F 66.4 °F 47% 29.70 in 10.0 mi South 13.8 mph 20.7 mph N/A   Mostly Cloudy
5:55 PM 88.9 °F 91.4 °F 66.2 °F 47% 29.69 in 10.0 mi South 13.8 mph - N/A   Mostly Cloudy
6:15 PM 87.8 °F 90.4 °F 66.7 °F 49% 29.70 in 10.0 mi South 11.5 mph - N/A   Mostly Cloudy
6:35 PM 87.6 °F 90.1 °F 66.4 °F 49% 29.70 in 10.0 mi South 10.4 mph - N/A   Overcast
6:55 PM 87.1 °F 89.9 °F 66.7 °F 51% 29.69 in 10.0 mi South 9.2 mph - N/A   Mostly Cloudy
7:15 PM 85.8 °F 88.8 °F 67.3 °F 54% 29.69 in 10.0 mi South 8.1 mph - N/A   Mostly Cloudy
7:35 PM 83.3 °F 86.4 °F 68.0 °F 60% 29.69 in 10.0 mi SSE 8.1 mph - N/A   Scattered Clouds
7:55 PM 82.6 °F 85.5 °F 68.0 °F 61% 29.69 in 10.0 mi South 6.9 mph - N/A   Scattered Clouds
8:15 PM 82.2 °F 85.3 °F 68.4 °F 63% 29.69 in 10.0 mi SSE 9.2 mph - N/A   Mostly Cloudy
8:35 PM 81.5 °F 84.6 °F 68.7 °F 65% 29.69 in 10.0 mi South 9.2 mph - N/A   Scattered Clouds
8:55 PM 80.4 °F 83.2 °F 68.4 °F 67% 29.69 in 10.0 mi South 8.1 mph - N/A   Clear
9:15 PM 79.3 °F - 68.5 °F 69% 29.69 in 10.0 mi South 6.9 mph - N/A   Clear
9:35 PM 78.4 °F - 68.5 °F 72% 29.70 in 10.0 mi South 8.1 mph - N/A   Clear
9:55 PM 78.3 °F - 68.4 °F 71% 29.70 in 10.0 mi South 10.4 mph - N/A   Clear
10:15 PM 77.9 °F - 68.4 °F 72% 29.70 in 10.0 mi South 8.1 mph - N/A   Clear
10:35 PM 77.9 °F - 68.4 °F 72% 29.70 in 10.0 mi South 8.1 mph - N/A   Clear
10:55 PM 78.6 °F - 68.0 °F 70% 29.69 in 10.0 mi South 9.2 mph - N/A   Clear
11:15 PM 78.6 °F - 68.0 °F 70% 29.69 in 10.0 mi South 9.2 mph - N/A   Clear
11:35 PM 78.4 °F - 68.2 °F 71% 29.69 in 10.0 mi South 9.2 mph - N/A   Clear
11:55 PM 79.0 °F - 68.0 °F 69% 29.69 in 10.0 mi South 10.4 mph - N/A   Clear